Regional Weather Roundup
Issued by NWS

Home | Current Version | Previous Version | Graphics & Text | Print | Product List | Glossary On
Versions: 1 2 3 4 5 6 7 8 9 10 11 12 13 14 15 16 17 18 19 20 21 22 23 24 25 26 27 28 29 30 31 32 33 34 35 36 37 38 39 40 41 42 43 44 45 46 47 48 49 50
000
ASUS43 KDMX 262006
RWRIA

WEATHER ROUNDUP FOR IOWA
NATIONAL WEATHER SERVICE DES MOINES IA
200 PM CST SUN FEB 26 2017

NOTE: "FAIR" INDICATES FEW OR NO CLOUDS BELOW 12,000 FEET WITH NO
SIGNIFICANT WEATHER AND/OR OBSTRUCTIONS TO VISIBILITY.

* - THESE STATIONS ARE NOT NWS STATIONS...THUS NOT UNDER NWS
QUALITY CONTROL.  THEY ALSO DO NOT REPORT WEATHER SUCH
AS PRECIPITATION OR FOG.

IAZ001>003-012>014-020>022-031>034-043>046-262100-
   NORTHWEST IOWA

CITY           SKY/WX    TMP DP  RH WIND       PRES   REMARKS
CARROLL *      SUNNY     36  25  64 W14       29.92S WCI  27
CHEROKEE *     SUNNY     32  24  73 W8        29.91S WCI  25
DENISON *      SUNNY     34  19  55 SW6       29.91S WCI  29
LE MARS *      SUNNY     34  23  64 W9        29.92S WCI  26
SHELDON *      SUNNY     32  30  93 SW10      29.87R WCI  24
SIOUX CITY     SUNNY     35  24  64 W7        29.93S WCI  29
SPENCER        SUNNY     33  26  75 SW10      29.88S WCI  25
STORM LAKE *   SUNNY     28  21  74 W12       29.90R WCI  18
$$

IAZ055>058-069>071-079>083-090>094-262100-
   SOUTHWEST IOWA

CITY           SKY/WX    TMP DP  RH WIND       PRES   REMARKS
ATLANTIC *     SUNNY     41  23  48 W9        29.93F
AUDUBON *      SUNNY     37  27  65 SW10      29.93S WCI  30
CLARINDA *     MOSUNNY   50  21  32 W17G26    29.94F
COUNCIL BLFS * SUNNY     41  21  45 NW6       29.93F
CRESTON *      MOSUNNY   48  23  37 W21       29.92F
HARLAN  *      SUNNY     36  25  64 W9        29.97S WCI  29
LAMONI         CLOUDY    51  26  37 W17G28    29.91F
RED OAK *      SUNNY     46  27  46 W12G18    29.93F
SHENANDOAH *   SUNNY     48  21  34 W16G24    29.93F
$$

IAZ047>049-059>061-072>074-084-262100-
   CENTRAL IOWA

CITY           SKY/WX    TMP DP  RH WIND       PRES   REMARKS
AMES           SUNNY     38  28  67 W15       29.92S WCI  29
ANKENY *       SUNNY     45  25  45 W18       29.93R
BOONE *        SUNNY     36  23  60 W13       29.90S WCI  27
CHARITON *     PTSUNNY   48  23  37 W20G30    29.91S
DES MOINES     MOSUNNY   48  25  40 W17G28    29.92R
GRINNELL*      SUNNY     46  24  40 W23G32    29.91S
KNOXVILLE *    MOSUNNY   48  21  34 W22G30    29.89F
MARSHALLTOWN   SUNNY     42  26  53 W18       29.89F
NEWTON *       SUNNY     45  25  45 W22G32    29.90R
PELLA *        SUNNY     49  22  33 W23G30    29.92S
PERRY *          N/A     37  27  67 W14       29.93S WCI  28
$$

IAZ004>006-015-016-023>025-035-036-262100-
   NORTH CENTRAL IOWA

CITY           SKY/WX    TMP DP  RH WIND       PRES   REMARKS
ALGONA *       SUNNY     32  25  74 W8        29.89S WCI  25
CLARION *      SUNNY     30  23  74 W12       29.91R WCI  21
ESTHERVILLE    SUNNY     32  27  81 SW10      29.86S WCI  24
FORT DODGE *   SUNNY     32  19  59 SW9       29.92R WCI  24
MASON CITY     SUNNY     30  21  69 W16       29.89R WCI  19
FOREST CITY *    N/A     34  25  69 SW6       29.88S WCI  29
WEBSTER CITY * SUNNY     32  21  64 W14       29.89R WCI  22
IOWA FALLS *     N/A     35  26  71 SW13      29.91S WCI  26
$$

IAZ007>011-017>019-026>030-037>042-050>054-066-262100-
   NORTHEAST IOWA

CITY           SKY/WX    TMP DP  RH WIND       PRES   REMARKS
CEDAR RAPIDS   SUNNY     48  27  44 W20G28    29.89F
CHARLES CITY * SUNNY     32  25  74 SW15      29.88S WCI  22
CLINTON *      SUNNY     48  26  42 W22       29.91F
DECORAH *      SUNNY     36  25  64 W14G22    29.85S WCI  27
DUBUQUE        SUNNY     42  27  55 W20G28    29.87F
MONTICELLO *   SUNNY     45  27  49 SW21G29   29.89S
OELWEIN *      SUNNY     39  30  70 W17       29.88S WCI  30
WATERLOO       SUNNY     39  25  57 SW22      29.89S WCI  29
$$

IAZ064-065-067-068-078-262100-
   EAST CENTRAL IOWA

CITY           SKY/WX    TMP DP  RH WIND       PRES   REMARKS
DAVENPORT      SUNNY     49  26  41 W23G30    29.92F
IOWA CITY      MOSUNNY   52  24  33 W24G31    29.92F
MUSCATINE *    MOSUNNY   50  23  34 W13G24    29.93S
QUAD CITIES    SUNNY     52  21  29 W20       29.92F
$$

IAZ062-063-075>077-085>089-095>099-262100-
   SOUTHEAST IOWA

CITY           SKY/WX    TMP DP  RH WIND       PRES   REMARKS
BURLINGTON     MOSUNNY   52  25  35 SW17G28   29.94F
FAIRFIELD *    PTSUNNY   50  25  37 W18G26    29.91F
KEOKUK *       MOSUNNY   52  25  35 SW21G30   29.95F
CENTERVILLE *    N/A     50  28  43 S20       29.94F
OTTUMWA        CLOUDY    49  25  39 W17       29.91F
WASHINGTON *   PTSUNNY   48  25  40 SW24      29.92F
$$

ABBREVIATIONS USED IN REMARKS
   TC - TEMPERATURES IN CELSIUS
  WCI - WIND CHILL INDEX
   HX - HEAT INDEX
  VSB - VISIBILITY
$$





USA.gov is the U.S. government's official web portal to all federal, state and local government web resources and services.